TimePST,TemperatureF,Dew PointF,Humidity,Sea Level PressureIn,VisibilityMPH,Wind Direction,Wind SpeedMPH,Gust SpeedMPH,PrecipitationIn,Events,Conditions,WindDirDegrees,DateUTC
12:15 AM,37.4,32.0,81,30.20,10.0,Calm,Calm,-,N/A,,Clear,0,2014-01-07 08:15:00
12:35 AM,39.2,32.0,75,30.20,10.0,Calm,Calm,-,N/A,,Clear,0,2014-01-07 08:35:00
12:55 AM,39.2,32.0,75,30.19,10.0,Calm,Calm,-,N/A,,Clear,0,2014-01-07 08:55:00
1:15 AM,35.6,32.0,87,30.19,10.0,Calm,Calm,-,N/A,,Clear,0,2014-01-07 09:15:00
1:35 AM,35.6,32.0,87,30.18,10.0,Calm,Calm,-,N/A,,Clear,0,2014-01-07 09:35:00
1:55 AM,37.4,32.0,81,30.19,10.0,Calm,Calm,-,N/A,,Clear,0,2014-01-07 09:55:00
2:15 AM,39.2,32.0,75,30.19,10.0,Calm,Calm,-,N/A,,Clear,0,2014-01-07 10:15:00
2:35 AM,39.2,32.0,75,30.19,10.0,Calm,Calm,-,N/A,,Clear,0,2014-01-07 10:35:00
2:55 AM,37.4,32.0,81,30.19,10.0,Calm,Calm,-,N/A,,Clear,0,2014-01-07 10:55:00
3:15 AM,39.2,32.0,75,30.19,10.0,Calm,Calm,-,N/A,,Clear,0,2014-01-07 11:15:00
3:35 AM,37.4,32.0,81,30.19,10.0,Calm,Calm,-,N/A,,Clear,0,2014-01-07 11:35:00
3:55 AM,37.4,32.0,81,30.19,10.0,North,4.6,-,N/A,,Clear,10,2014-01-07 11:55:00
4:15 AM,39.2,33.8,81,30.19,10.0,Calm,Calm,-,N/A,,Clear,0,2014-01-07 12:15:00
4:35 AM,37.4,32.0,81,30.19,10.0,Calm,Calm,-,N/A,,Clear,0,2014-01-07 12:35:00
4:55 AM,37.4,32.0,81,30.18,10.0,Calm,Calm,-,N/A,,Clear,0,2014-01-07 12:55:00
5:15 AM,35.6,32.0,87,30.18,10.0,Calm,Calm,-,N/A,,Clear,0,2014-01-07 13:15:00
5:35 AM,37.4,32.0,81,30.18,10.0,Calm,Calm,-,N/A,,Clear,0,2014-01-07 13:35:00
5:55 AM,37.4,32.0,81,30.19,10.0,Calm,Calm,-,N/A,,Clear,0,2014-01-07 13:55:00
6:15 AM,37.4,32.0,81,30.18,10.0,Calm,Calm,-,N/A,,Partly Cloudy,0,2014-01-07 14:15:00
6:35 AM,37.4,32.0,81,30.18,10.0,Calm,Calm,-,N/A,,Clear,0,2014-01-07 14:35:00
6:55 AM,37.4,32.0,81,30.18,10.0,Calm,Calm,-,N/A,,Clear,0,2014-01-07 14:55:00
7:15 AM,37.4,32.0,81,30.18,10.0,Calm,Calm,-,N/A,,Clear,0,2014-01-07 15:15:00
7:35 AM,37.4,32.0,81,30.18,10.0,Calm,Calm,-,N/A,,Clear,0,2014-01-07 15:35:00
7:55 AM,37.4,32.0,81,30.18,10.0,Calm,Calm,-,N/A,,Clear,0,2014-01-07 15:55:00
8:15 AM,37.4,32.0,81,30.18,10.0,Calm,Calm,-,N/A,,Clear,0,2014-01-07 16:15:00
8:35 AM,39.2,33.8,81,30.18,10.0,Calm,Calm,-,N/A,,Clear,0,2014-01-07 16:35:00
8:55 AM,41.0,33.8,76,30.19,10.0,Calm,Calm,-,N/A,,Clear,0,2014-01-07 16:55:00
9:15 AM,42.8,33.8,70,30.21,10.0,NNW,3.5,-,N/A,,Clear,340,2014-01-07 17:15:00
9:35 AM,44.6,33.8,66,30.21,10.0,NNE,4.6,-,N/A,,Clear,20,2014-01-07 17:35:00
9:55 AM,46.4,35.6,66,30.22,10.0,North,6.9,-,N/A,,Scattered Clouds,10,2014-01-07 17:55:00
10:15 AM,46.4,33.8,62,30.23,10.0,North,4.6,-,N/A,,Mostly Cloudy,360,2014-01-07 18:15:00
10:35 AM,46.4,33.8,62,30.23,10.0,North,4.6,-,N/A,,Mostly Cloudy,10,2014-01-07 18:35:00
10:55 AM,48.2,33.8,58,30.23,10.0,North,4.6,-,N/A,,Overcast,10,2014-01-07 18:55:00
11:15 AM,50.0,32.0,50,30.22,10.0,NNE,3.5,-,N/A,,Overcast,30,2014-01-07 19:15:00
11:35 AM,53.6,32.0,44,30.21,10.0,NNE,3.5,-,N/A,,Overcast,20,2014-01-07 19:35:00
11:55 AM,55.4,32.0,41,30.20,10.0,North,3.5,-,N/A,,Mostly Cloudy,10,2014-01-07 19:55:00
12:15 PM,55.4,32.0,41,30.19,10.0,NNW,3.5,-,N/A,,Overcast,340,2014-01-07 20:15:00
12:35 PM,57.2,32.0,38,30.18,10.0,Calm,Calm,-,N/A,,Mostly Cloudy,0,2014-01-07 20:35:00
12:55 PM,59.0,32.0,36,30.16,10.0,Calm,Calm,-,N/A,,Mostly Cloudy,0,2014-01-07 20:55:00
1:15 PM,59.0,32.0,36,30.15,10.0,SSE,3.5,-,N/A,,Scattered Clouds,150,2014-01-07 21:15:00
1:35 PM,60.8,32.0,34,30.14,10.0,South,3.5,-,N/A,,Clear,180,2014-01-07 21:35:00
1:55 PM,60.8,35.6,39,30.14,10.0,SE,5.8,-,N/A,,Clear,130,2014-01-07 21:55:00
2:15 PM,60.8,35.6,39,30.14,10.0,SE,5.8,-,N/A,,Clear,130,2014-01-07 22:15:00
2:35 PM,60.8,32.0,34,30.14,10.0,SE,4.6,-,N/A,,Scattered Clouds,130,2014-01-07 22:35:00
2:55 PM,60.8,33.8,36,30.14,10.0,SE,3.5,-,N/A,,Overcast,140,2014-01-07 22:55:00
3:15 PM,62.6,33.8,34,30.14,10.0,South,4.6,-,N/A,,Mostly Cloudy,190,2014-01-07 23:15:00
3:35 PM,60.8,33.8,36,30.14,10.0,South,4.6,-,N/A,,Mostly Cloudy,190,2014-01-07 23:35:00
3:55 PM,59.0,33.8,39,30.15,10.0,SW,5.8,-,N/A,,Mostly Cloudy,220,2014-01-07 23:55:00
4:15 PM,59.0,35.6,42,30.15,10.0,SSW,6.9,-,N/A,,Overcast,210,2014-01-08 00:15:00
4:35 PM,59.0,35.6,42,30.15,10.0,SSW,5.8,-,N/A,,Mostly Cloudy,200,2014-01-08 00:35:00
4:55 PM,57.2,35.6,44,30.14,10.0,South,4.6,-,N/A,,Partly Cloudy,190,2014-01-08 00:55:00
5:15 PM,55.4,35.6,47,30.14,10.0,South,4.6,-,N/A,,Clear,180,2014-01-08 01:15:00
5:35 PM,53.6,41.0,62,30.15,10.0,NNW,3.5,-,N/A,,Clear,340,2014-01-08 01:35:00
5:55 PM,50.0,37.4,62,30.14,10.0,East,3.5,-,N/A,,Clear,80,2014-01-08 01:55:00
6:15 PM,50.0,37.4,62,30.14,10.0,ENE,5.8,-,N/A,,Clear,60,2014-01-08 02:15:00
6:35 PM,50.0,39.2,66,30.13,10.0,East,3.5,-,N/A,,Clear,100,2014-01-08 02:35:00
6:55 PM,46.4,39.2,76,30.15,10.0,Calm,Calm,-,N/A,,Clear,0,2014-01-08 02:55:00
7:15 PM,48.2,41.0,76,30.15,10.0,Calm,Calm,-,N/A,,Clear,0,2014-01-08 03:15:00
7:35 PM,48.2,42.8,82,30.15,10.0,ESE,3.5,-,N/A,,Clear,120,2014-01-08 03:35:00
7:55 PM,50.0,44.6,82,30.16,10.0,East,3.5,-,N/A,,Clear,100,2014-01-08 03:55:00
8:15 PM,48.2,44.6,87,30.17,10.0,NNE,5.8,-,N/A,,Clear,30,2014-01-08 04:15:00
8:35 PM,50.0,46.4,87,30.18,10.0,North,6.9,-,N/A,,Partly Cloudy,350,2014-01-08 04:35:00
8:55 PM,51.8,50.0,94,30.18,10.0,NNW,6.9,-,N/A,,Partly Cloudy,340,2014-01-08 04:55:00
9:15 PM,55.4,53.6,94,30.19,10.0,WNW,4.6,-,N/A,,Mostly Cloudy,300,2014-01-08 05:15:00
9:35 PM,55.4,53.6,94,30.19,10.0,NW,4.6,-,N/A,,Overcast,320,2014-01-08 05:35:00
9:55 PM,55.4,53.6,94,30.19,10.0,NNW,5.8,-,N/A,,Overcast,340,2014-01-08 05:55:00
10:15 PM,53.6,53.6,100,30.20,10.0,NNW,3.5,-,N/A,,Overcast,340,2014-01-08 06:15:00
10:35 PM,55.4,53.6,94,30.20,10.0,WNW,4.6,-,N/A,,Overcast,300,2014-01-08 06:35:00
10:55 PM,55.4,53.6,94,30.20,10.0,North,4.6,-,N/A,,Overcast,350,2014-01-08 06:55:00
11:15 PM,55.4,53.6,94,30.20,10.0,Calm,Calm,-,N/A,,Overcast,0,2014-01-08 07:15:00
11:35 PM,53.6,53.6,100,30.20,10.0,Calm,Calm,-,N/A,,Mostly Cloudy,0,2014-01-08 07:35:00
11:55 PM,50.0,50.0,100,30.19,10.0,NE,5.8,-,N/A,,Partly Cloudy,40,2014-01-08 07:55:00